Year,Month,Day,Hour,Minute,Value (Times are PST for temperature in C)
2010,02,21,00,00,0.30
2010,02,21,00,01,0.30
2010,02,21,00,02,0.30
2010,02,21,00,03,0.30
2010,02,21,00,04,0.30
2010,02,21,00,05,0.30
2010,02,21,00,06,0.20
2010,02,21,00,07,0.20
2010,02,21,00,08,0.20
2010,02,21,00,09,0.20
2010,02,21,00,10,0.20
2010,02,21,00,11,0.20
2010,02,21,00,12,0.20
2010,02,21,00,13,0.20
2010,02,21,00,14,0.20
2010,02,21,00,15,0.20
2010,02,21,00,16,0.10
2010,02,21,00,17,0.10
2010,02,21,00,18,0.10
2010,02,21,00,19,0.10
2010,02,21,00,20,0.20
2010,02,21,00,21,0.20
2010,02,21,00,22,0.20
2010,02,21,00,23,0.20
2010,02,21,00,24,0.20
2010,02,21,00,25,0.20
2010,02,21,00,26,0.20
2010,02,21,00,27,0.10
2010,02,21,00,28,0.10
2010,02,21,00,29,0.10
2010,02,21,00,30,0.10
2010,02,21,00,31,0.10
2010,02,21,00,32,0.10
2010,02,21,00,33,0.10
2010,02,21,00,34,0.20
2010,02,21,00,35,0.20
2010,02,21,00,36,0.20
2010,02,21,00,37,0.20
2010,02,21,00,38,0.20
2010,02,21,00,39,0.20
2010,02,21,00,40,0.20
2010,02,21,00,41,0.20
2010,02,21,00,42,0.20
2010,02,21,00,43,0.10
2010,02,21,00,44,0.10
2010,02,21,00,45,0.10
2010,02,21,00,46,0.10
2010,02,21,00,47,0.00
2010,02,21,00,48,0.00
2010,02,21,00,49,0.00
2010,02,21,00,50,0.00
2010,02,21,00,51,0.00
2010,02,21,00,52,0.00
2010,02,21,00,53,0.00
2010,02,21,00,54,0.00
2010,02,21,00,55,0.00
2010,02,21,00,56,0.00
2010,02,21,00,57,0.00
2010,02,21,00,58,0.00
2010,02,21,00,59,0.00
2010,02,21,01,00,-0.10
2010,02,21,01,01,-0.10
2010,02,21,01,02,-0.10
2010,02,21,01,03,0.00
2010,02,21,01,04,0.00
2010,02,21,01,05,0.10
2010,02,21,01,06,0.10
2010,02,21,01,07,0.20
2010,02,21,01,08,0.20
2010,02,21,01,09,0.20
2010,02,21,01,10,0.20
2010,02,21,01,11,0.20
2010,02,21,01,12,0.20
2010,02,21,01,13,0.20
2010,02,21,01,14,0.20
2010,02,21,01,15,0.20
2010,02,21,01,16,0.20
2010,02,21,01,17,0.20
2010,02,21,01,18,0.20
2010,02,21,01,19,0.20
2010,02,21,01,20,0.20
2010,02,21,01,21,0.20
2010,02,21,01,22,0.20
2010,02,21,01,23,0.20
2010,02,21,01,24,0.20
2010,02,21,01,25,0.20
2010,02,21,01,26,0.30
2010,02,21,01,27,0.30
2010,02,21,01,28,0.30
2010,02,21,01,29,0.40
2010,02,21,01,30,0.50
2010,02,21,01,31,0.60
2010,02,21,01,32,0.70
2010,02,21,01,33,0.80
2010,02,21,01,34,0.90
2010,02,21,01,35,1.00
2010,02,21,01,36,1.10
2010,02,21,01,37,1.10
2010,02,21,01,38,1.20
2010,02,21,01,39,1.10
2010,02,21,01,40,1.10
2010,02,21,01,41,1.10
2010,02,21,01,42,1.10
2010,02,21,01,43,1.00
2010,02,21,01,44,1.00
2010,02,21,01,45,1.00
2010,02,21,01,46,1.00
2010,02,21,01,47,0.90
2010,02,21,01,48,0.90
2010,02,21,01,49,0.90
2010,02,21,01,50,0.80
2010,02,21,01,51,0.80
2010,02,21,01,52,0.80
2010,02,21,01,53,0.90
2010,02,21,01,54,0.90
2010,02,21,01,55,0.90
2010,02,21,01,56,0.80
2010,02,21,01,57,0.80
2010,02,21,01,58,0.70
2010,02,21,01,59,0.70
2010,02,21,02,00,0.60
2010,02,21,02,01,0.50
2010,02,21,02,02,0.50
2010,02,21,02,03,0.40
2010,02,21,02,04,0.40
2010,02,21,02,05,0.30
2010,02,21,02,06,0.30
2010,02,21,02,07,0.30
2010,02,21,02,08,0.20
2010,02,21,02,09,0.20
2010,02,21,02,10,0.20
2010,02,21,02,11,0.20
2010,02,21,02,12,0.20
2010,02,21,02,13,0.30
2010,02,21,02,14,0.30
2010,02,21,02,15,0.30
2010,02,21,02,16,0.30
2010,02,21,02,17,0.30
2010,02,21,02,18,0.30
2010,02,21,02,19,0.30
2010,02,21,02,20,0.30
2010,02,21,02,21,0.30
2010,02,21,02,22,0.30
2010,02,21,02,23,0.30
2010,02,21,02,24,0.30
2010,02,21,02,25,0.30
2010,02,21,02,26,0.30
2010,02,21,02,27,0.30
2010,02,21,02,28,0.30
2010,02,21,02,29,0.30
2010,02,21,02,30,0.30
2010,02,21,02,31,0.30
2010,02,21,02,32,0.20
2010,02,21,02,33,0.20
2010,02,21,02,34,0.20
2010,02,21,02,35,0.10
2010,02,21,02,36,0.10
2010,02,21,02,37,0.10
2010,02,21,02,38,0.10
2010,02,21,02,39,0.00
2010,02,21,02,40,0.00
2010,02,21,02,41,-0.10
2010,02,21,02,42,-0.10
2010,02,21,02,43,-0.10
2010,02,21,02,44,-0.20
2010,02,21,02,45,-0.20
2010,02,21,02,46,-0.20
2010,02,21,02,47,-0.30
2010,02,21,02,48,-0.30
2010,02,21,02,49,-0.30
2010,02,21,02,50,-0.30
2010,02,21,02,51,-0.30
2010,02,21,02,52,-0.30
2010,02,21,02,53,-0.30
2010,02,21,02,54,-0.40
2010,02,21,02,55,-0.40
2010,02,21,02,56,-0.40
2010,02,21,02,57,-0.50
2010,02,21,02,58,-0.50
2010,02,21,02,59,-0.50
2010,02,21,03,00,-0.50
2010,02,21,03,01,-0.50
2010,02,21,03,02,-0.50
2010,02,21,03,03,-0.40
2010,02,21,03,04,-0.40
2010,02,21,03,05,-0.30
2010,02,21,03,06,-0.30
2010,02,21,03,07,-0.20
2010,02,21,03,08,-0.20
2010,02,21,03,09,-0.10
2010,02,21,03,10,-0.10
2010,02,21,03,11,-0.10
2010,02,21,03,12,0.00
2010,02,21,03,13,0.00
2010,02,21,03,14,0.10
2010,02,21,03,15,0.10
2010,02,21,03,16,0.10
2010,02,21,03,17,0.10
2010,02,21,03,18,0.10
2010,02,21,03,19,0.10
2010,02,21,03,20,0.00
2010,02,21,03,21,0.00
2010,02,21,03,22,0.00
2010,02,21,03,23,0.00
2010,02,21,03,24,0.10
2010,02,21,03,25,0.10
2010,02,21,03,26,0.10
2010,02,21,03,27,0.10
2010,02,21,03,28,0.10
2010,02,21,03,29,0.20
2010,02,21,03,30,0.20
2010,02,21,03,31,0.20
2010,02,21,03,32,0.20
2010,02,21,03,33,0.20
2010,02,21,03,34,0.20
2010,02,21,03,35,0.20
2010,02,21,03,36,0.20
2010,02,21,03,37,0.10
2010,02,21,03,38,0.10
2010,02,21,03,39,0.10
2010,02,21,03,40,0.10
2010,02,21,03,41,0.00
2010,02,21,03,42,0.00
2010,02,21,03,43,0.00
2010,02,21,03,44,0.00
2010,02,21,03,45,0.00
2010,02,21,03,46,0.00
2010,02,21,03,47,0.00
2010,02,21,03,48,0.00
2010,02,21,03,49,0.00
2010,02,21,03,50,0.00
2010,02,21,03,51,0.00
2010,02,21,03,52,0.00
2010,02,21,03,53,0.00
2010,02,21,03,54,0.00
2010,02,21,03,55,0.00
2010,02,21,03,56,0.00
2010,02,21,03,57,0.00
2010,02,21,03,58,0.00
2010,02,21,03,59,0.00
2010,02,21,04,00,0.00
2010,02,21,04,01,-0.10
2010,02,21,04,02,-0.10
2010,02,21,04,03,-0.10
2010,02,21,04,04,-0.20
2010,02,21,04,05,-0.20
2010,02,21,04,06,-0.20
2010,02,21,04,07,-0.30
2010,02,21,04,08,-0.30
2010,02,21,04,09,-0.30
2010,02,21,04,10,-0.40
2010,02,21,04,11,-0.40
2010,02,21,04,12,-0.50
2010,02,21,04,13,-0.60
2010,02,21,04,14,-0.60
2010,02,21,04,15,-0.60
2010,02,21,04,16,-0.60
2010,02,21,04,17,-0.60
2010,02,21,04,18,-0.60
2010,02,21,04,19,-0.50
2010,02,21,04,20,-0.50
2010,02,21,04,21,-0.40
2010,02,21,04,22,-0.40
2010,02,21,04,23,-0.40
2010,02,21,04,24,-0.40
2010,02,21,04,25,-0.40
2010,02,21,04,26,-0.40
2010,02,21,04,27,-0.40
2010,02,21,04,28,-0.50
2010,02,21,04,29,-0.50
2010,02,21,04,30,-0.60
2010,02,21,04,31,-0.60
2010,02,21,04,32,-0.60
2010,02,21,04,33,-0.60
2010,02,21,04,34,-0.60
2010,02,21,04,35,-0.60
2010,02,21,04,36,-0.60
2010,02,21,04,37,-0.60
2010,02,21,04,38,-0.60
2010,02,21,04,39,-0.60
2010,02,21,04,40,-0.60
2010,02,21,04,41,-0.60
2010,02,21,04,42,-0.60
2010,02,21,04,43,-0.60
2010,02,21,04,44,-0.60
2010,02,21,04,45,-0.60
2010,02,21,04,46,-0.70
2010,02,21,04,47,-0.70
2010,02,21,04,48,-0.70
2010,02,21,04,49,-0.80
2010,02,21,04,50,-0.80
2010,02,21,04,51,-0.80
2010,02,21,04,52,-0.90
2010,02,21,04,53,-0.90
2010,02,21,04,54,-0.90
2010,02,21,04,55,-0.90
2010,02,21,04,56,-1.00
2010,02,21,04,57,-1.00
2010,02,21,04,58,-1.00
2010,02,21,04,59,-0.90
2010,02,21,05,00,-0.90
2010,02,21,05,01,-0.90
2010,02,21,05,02,-0.80
2010,02,21,05,03,-0.80
2010,02,21,05,04,-0.80
2010,02,21,05,05,-0.80
2010,02,21,05,06,-0.80
2010,02,21,05,07,-0.80
2010,02,21,05,08,-0.80
2010,02,21,05,09,-0.80
2010,02,21,05,10,-0.80
2010,02,21,05,11,-0.80
2010,02,21,05,12,-0.80
2010,02,21,05,13,-0.80
2010,02,21,05,14,-0.80
2010,02,21,05,15,-0.90
2010,02,21,05,16,-0.90
2010,02,21,05,17,-0.90
2010,02,21,05,18,-0.90
2010,02,21,05,19,-0.90
2010,02,21,05,20,-1.00
2010,02,21,05,21,-1.00
2010,02,21,05,22,-1.00
2010,02,21,05,23,-1.00
2010,02,21,05,24,-1.00
2010,02,21,05,25,-1.00
2010,02,21,05,26,-1.00
2010,02,21,05,27,-0.90
2010,02,21,05,28,-0.90
2010,02,21,05,29,-0.80
2010,02,21,05,30,-0.80
2010,02,21,05,31,-0.70
2010,02,21,05,32,-0.60
2010,02,21,05,33,-0.60
2010,02,21,05,34,-0.50
2010,02,21,05,35,-0.50
2010,02,21,05,36,-0.50
2010,02,21,05,37,-0.50
2010,02,21,05,38,-0.50
2010,02,21,05,39,-0.60
2010,02,21,05,40,-0.60
2010,02,21,05,41,-0.60
2010,02,21,05,42,-0.70
2010,02,21,05,43,-0.70
2010,02,21,05,44,-0.80
2010,02,21,05,45,-0.80
2010,02,21,05,46,-0.80
2010,02,21,05,47,-0.80
2010,02,21,05,48,-0.90
2010,02,21,05,49,-0.90
2010,02,21,05,50,-0.80
2010,02,21,05,51,-0.80
2010,02,21,05,52,-0.80
2010,02,21,05,53,-0.80
2010,02,21,05,54,-0.80
2010,02,21,05,55,-0.90
2010,02,21,05,56,-0.90
2010,02,21,05,57,-0.80
2010,02,21,05,58,-0.80
2010,02,21,05,59,-0.80
2010,02,21,06,00,-0.80
2010,02,21,06,01,-0.80
2010,02,21,06,02,-0.80
2010,02,21,06,03,-0.80
2010,02,21,06,04,-0.80
2010,02,21,06,05,-0.90
2010,02,21,06,06,-0.90
2010,02,21,06,07,-0.90
2010,02,21,06,08,-1.00
2010,02,21,06,09,-1.00
2010,02,21,06,10,-1.00
2010,02,21,06,11,-1.10
2010,02,21,06,12,-1.10
2010,02,21,06,13,-1.10
2010,02,21,06,14,-1.10
2010,02,21,06,15,-1.20
2010,02,21,06,16,-1.20
2010,02,21,06,17,-1.20
2010,02,21,06,18,-1.30
2010,02,21,06,19,-1.20
2010,02,21,06,20,-1.20
2010,02,21,06,21,-1.20
2010,02,21,06,22,-1.20
2010,02,21,06,23,-1.20
2010,02,21,06,24,-1.10
2010,02,21,06,25,-1.10
2010,02,21,06,26,-1.10
2010,02,21,06,27,-1.10
2010,02,21,06,28,-1.10
2010,02,21,06,29,-1.10
2010,02,21,06,30,-1.10
2010,02,21,06,31,-1.10
2010,02,21,06,32,-1.10
2010,02,21,06,33,-1.10
2010,02,21,06,34,-1.20
2010,02,21,06,35,-1.20
2010,02,21,06,36,-1.20
2010,02,21,06,37,-1.20
2010,02,21,06,38,-1.30
2010,02,21,06,39,-1.30
2010,02,21,06,40,-1.30
2010,02,21,06,41,-1.30
2010,02,21,06,42,-1.30
2010,02,21,06,43,-1.30
2010,02,21,06,44,-1.30
2010,02,21,06,45,-1.30
2010,02,21,06,46,-1.40
2010,02,21,06,47,-1.40
2010,02,21,06,48,-1.40
2010,02,21,06,49,-1.30
2010,02,21,06,50,-1.30
2010,02,21,06,51,-1.30
2010,02,21,06,52,-1.20
2010,02,21,06,53,-1.20
2010,02,21,06,54,-1.10
2010,02,21,06,55,-1.00
2010,02,21,06,56,-1.00
2010,02,21,06,57,-0.90
2010,02,21,06,58,-0.90
2010,02,21,06,59,-0.80
2010,02,21,07,00,-0.80
2010,02,21,07,01,-0.80
2010,02,21,07,02,-0.80
2010,02,21,07,03,-0.80
2010,02,21,07,04,-0.80
2010,02,21,07,05,-0.80
2010,02,21,07,06,-0.70
2010,02,21,07,07,-0.70
2010,02,21,07,08,-0.70
2010,02,21,07,09,-0.70
2010,02,21,07,10,-0.70
2010,02,21,07,11,-0.70
2010,02,21,07,12,-0.80
2010,02,21,07,13,-0.80
2010,02,21,07,14,-0.90
2010,02,21,07,15,-0.90
2010,02,21,07,16,-1.00
2010,02,21,07,17,-1.00
2010,02,21,07,18,-1.10
2010,02,21,07,19,-1.10
2010,02,21,07,20,-1.10
2010,02,21,07,21,-1.20
2010,02,21,07,22,-1.20
2010,02,21,07,23,-1.20
2010,02,21,07,24,-1.20
2010,02,21,07,25,-1.20
2010,02,21,07,26,-1.30
2010,02,21,07,27,-1.30
2010,02,21,07,28,-1.30
2010,02,21,07,29,-1.30
2010,02,21,07,30,-1.30
2010,02,21,07,31,-1.30
2010,02,21,07,32,-1.30
2010,02,21,07,33,-1.30
2010,02,21,07,34,-1.30
2010,02,21,07,35,-1.30
2010,02,21,07,36,-1.30
2010,02,21,07,37,-1.30
2010,02,21,07,38,-1.30
2010,02,21,07,39,-1.30
2010,02,21,07,40,-1.30
2010,02,21,07,41,-1.30
2010,02,21,07,42,-1.20
2010,02,21,07,43,-1.20
2010,02,21,07,44,-1.20
2010,02,21,07,45,-1.20
2010,02,21,07,46,-1.20
2010,02,21,07,47,-1.20
2010,02,21,07,48,-1.20
2010,02,21,07,49,-1.20
2010,02,21,07,50,-1.20
2010,02,21,07,51,-1.10
2010,02,21,07,52,-1.10
2010,02,21,07,53,-1.00
2010,02,21,07,54,-0.90
2010,02,21,07,55,-0.80
2010,02,21,07,56,-0.70
2010,02,21,07,57,-0.60
2010,02,21,07,58,-0.50
2010,02,21,07,59,-0.30
2010,02,21,08,00,-0.20
2010,02,21,08,01,-0.20
2010,02,21,08,02,-0.10
2010,02,21,08,03,0.00
2010,02,21,08,04,0.00
2010,02,21,08,05,0.10
2010,02,21,08,06,0.10
2010,02,21,08,07,0.20
2010,02,21,08,08,0.20
2010,02,21,08,09,0.20
2010,02,21,08,10,0.20
2010,02,21,08,11,0.20
2010,02,21,08,12,0.20
2010,02,21,08,13,0.20
2010,02,21,08,14,0.20
2010,02,21,08,15,0.20
2010,02,21,08,16,0.20
2010,02,21,08,17,0.20
2010,02,21,08,18,0.20
2010,02,21,08,19,0.20
2010,02,21,08,20,0.30
2010,02,21,08,21,0.30
2010,02,21,08,22,0.30
2010,02,21,08,23,0.30
2010,02,21,08,24,0.40
2010,02,21,08,25,0.40
2010,02,21,08,26,0.50
2010,02,21,08,27,0.60
2010,02,21,08,28,0.70
2010,02,21,08,29,0.80
2010,02,21,08,30,0.90
2010,02,21,08,31,1.00
2010,02,21,08,32,1.10
2010,02,21,08,33,1.30
2010,02,21,08,34,1.30
2010,02,21,08,35,1.50
2010,02,21,08,36,1.70
2010,02,21,08,37,1.80
2010,02,21,08,38,1.90
2010,02,21,08,39,2.00
2010,02,21,08,40,2.10
2010,02,21,08,41,2.20
2010,02,21,08,42,2.20
2010,02,21,08,43,2.30
2010,02,21,08,44,2.30
2010,02,21,08,45,2.30
2010,02,21,08,46,2.30
2010,02,21,08,47,2.30
2010,02,21,08,48,2.40
2010,02,21,08,49,2.40
2010,02,21,08,50,2.40
2010,02,21,08,51,2.50
2010,02,21,08,52,2.50
2010,02,21,08,53,2.60
2010,02,21,08,54,2.70
2010,02,21,08,55,2.80
2010,02,21,08,56,2.90
2010,02,21,08,57,3.00
2010,02,21,08,58,3.10
2010,02,21,08,59,3.10
2010,02,21,09,00,3.20
2010,02,21,09,01,3.30
2010,02,21,09,02,3.40
2010,02,21,09,03,3.50
2010,02,21,09,04,3.60
2010,02,21,09,05,3.70
2010,02,21,09,06,3.80
2010,02,21,09,07,3.80
2010,02,21,09,08,4.00
2010,02,21,09,09,4.10
2010,02,21,09,10,4.30
2010,02,21,09,11,4.40
2010,02,21,09,12,4.60
2010,02,21,09,13,4.80
2010,02,21,09,14,4.90
2010,02,21,09,15,5.10
2010,02,21,09,16,5.20
2010,02,21,09,17,5.30
2010,02,21,09,18,5.40
2010,02,21,09,19,5.60
2010,02,21,09,20,5.70
2010,02,21,09,21,5.80
2010,02,21,09,22,5.90
2010,02,21,09,23,6.10
2010,02,21,09,24,6.20
2010,02,21,09,25,6.30
2010,02,21,09,26,6.40
2010,02,21,09,27,6.50
2010,02,21,09,28,6.60
2010,02,21,09,29,6.70
2010,02,21,09,30,6.80
2010,02,21,09,31,7.00
2010,02,21,09,32,7.10
2010,02,21,09,33,7.20
2010,02,21,09,34,7.20
2010,02,21,09,35,7.30
2010,02,21,09,36,7.30
2010,02,21,09,37,7.30
2010,02,21,09,38,7.40
2010,02,21,09,39,7.40
2010,02,21,09,40,7.50
2010,02,21,09,41,7.50
2010,02,21,09,42,7.60
2010,02,21,09,43,7.70
2010,02,21,09,44,7.80
2010,02,21,09,45,7.80
2010,02,21,09,46,7.90
2010,02,21,09,47,7.90
2010,02,21,09,48,8.00
2010,02,21,09,49,8.10
2010,02,21,09,50,8.10
2010,02,21,09,51,8.10
2010,02,21,09,52,8.20
2010,02,21,09,53,8.20
2010,02,21,09,54,8.20
2010,02,21,09,55,8.30
2010,02,21,09,56,8.30
2010,02,21,09,57,8.30
2010,02,21,09,58,8.30
2010,02,21,09,59,8.30
2010,02,21,10,00,8.30
2010,02,21,10,01,8.30
2010,02,21,10,02,8.20
2010,02,21,10,03,8.20
2010,02,21,10,04,8.20
2010,02,21,10,05,8.20
2010,02,21,10,06,8.30
2010,02,21,10,07,8.30
2010,02,21,10,08,8.30
2010,02,21,10,09,8.40
2010,02,21,10,10,8.50
2010,02,21,10,11,8.60
2010,02,21,10,12,8.60
2010,02,21,10,13,8.60
2010,02,21,10,14,8.70
2010,02,21,10,15,8.70
2010,02,21,10,16,8.70
2010,02,21,10,17,8.80
2010,02,21,10,18,8.80
2010,02,21,10,19,8.80
2010,02,21,10,20,8.80
2010,02,21,10,21,8.90
2010,02,21,10,22,8.90
2010,02,21,10,23,8.80
2010,02,21,10,24,8.80
2010,02,21,10,25,8.80
2010,02,21,10,26,8.80
2010,02,21,10,27,8.80
2010,02,21,10,28,8.70
2010,02,21,10,29,8.70
2010,02,21,10,30,8.70
2010,02,21,10,31,8.70
2010,02,21,10,32,8.80
2010,02,21,10,33,8.80
2010,02,21,10,34,8.80
2010,02,21,10,35,8.80
2010,02,21,10,36,8.80
2010,02,21,10,37,8.80
2010,02,21,10,38,8.70
2010,02,21,10,39,8.70
2010,02,21,10,40,8.70
2010,02,21,10,41,8.70
2010,02,21,10,42,8.80
2010,02,21,10,43,8.80
2010,02,21,10,44,8.80
2010,02,21,10,45,8.80
2010,02,21,10,46,8.80
2010,02,21,10,47,8.80
2010,02,21,10,48,8.80
2010,02,21,10,49,8.80
2010,02,21,10,50,8.80
2010,02,21,10,51,8.80
2010,02,21,10,52,8.80
2010,02,21,10,53,8.80
2010,02,21,10,54,8.90
2010,02,21,10,55,8.90
2010,02,21,10,56,9.00
2010,02,21,10,57,9.00
2010,02,21,10,58,9.00
2010,02,21,10,59,9.10
2010,02,21,11,00,9.10
2010,02,21,11,01,9.20
2010,02,21,11,02,9.20
2010,02,21,11,03,9.30
2010,02,21,11,04,9.30
2010,02,21,11,05,9.20
2010,02,21,11,06,9.20
2010,02,21,11,07,9.20
2010,02,21,11,08,9.20
2010,02,21,11,09,9.20
2010,02,21,11,10,9.20
2010,02,21,11,11,9.20
2010,02,21,11,12,9.20
2010,02,21,11,13,9.20
2010,02,21,11,14,9.20
2010,02,21,11,15,9.20
2010,02,21,11,16,9.20
2010,02,21,11,17,9.30
2010,02,21,11,18,9.30
2010,02,21,11,19,9.30
2010,02,21,11,20,9.30
2010,02,21,11,21,9.30
2010,02,21,11,22,9.30
2010,02,21,11,23,9.30
2010,02,21,11,24,9.40
2010,02,21,11,25,9.40
2010,02,21,11,26,9.40
2010,02,21,11,27,9.40
2010,02,21,11,28,9.40
2010,02,21,11,29,9.30
2010,02,21,11,30,9.40
2010,02,21,11,31,9.40
2010,02,21,11,32,9.30
2010,02,21,11,33,9.30
2010,02,21,11,34,9.30
2010,02,21,11,35,9.20
2010,02,21,11,36,9.20
2010,02,21,11,37,9.20
2010,02,21,11,38,9.20
2010,02,21,11,39,9.20
2010,02,21,11,40,9.30
2010,02,21,11,41,9.30
2010,02,21,11,42,9.40
2010,02,21,11,43,9.40
2010,02,21,11,44,9.50
2010,02,21,11,45,9.50
2010,02,21,11,46,9.50
2010,02,21,11,47,9.60
2010,02,21,11,48,9.60
2010,02,21,11,49,9.60
2010,02,21,11,50,9.60
2010,02,21,11,51,9.60
2010,02,21,11,52,9.70
2010,02,21,11,53,9.70
2010,02,21,11,54,9.70
2010,02,21,11,55,9.70
2010,02,21,11,56,9.70
2010,02,21,11,57,9.70
2010,02,21,11,58,9.70
2010,02,21,11,59,9.70
2010,02,21,12,00,9.70
2010,02,21,12,01,9.60
2010,02,21,12,02,9.60
2010,02,21,12,03,9.60
2010,02,21,12,04,9.60
2010,02,21,12,05,9.70
2010,02,21,12,06,9.80
2010,02,21,12,07,9.80
2010,02,21,12,08,9.80
2010,02,21,12,09,9.80
2010,02,21,12,10,9.90
2010,02,21,12,11,9.90
2010,02,21,12,12,9.90
2010,02,21,12,13,10.00
2010,02,21,12,14,10.10
2010,02,21,12,15,10.10
2010,02,21,12,16,10.30
2010,02,21,12,17,10.40
2010,02,21,12,18,10.40
2010,02,21,12,19,10.40
2010,02,21,12,20,10.40
2010,02,21,12,21,10.40
2010,02,21,12,22,10.40
2010,02,21,12,23,10.50
2010,02,21,12,24,10.60
2010,02,21,12,25,10.70
2010,02,21,12,26,10.70
2010,02,21,12,27,10.80
2010,02,21,12,28,10.90
2010,02,21,12,29,11.10
2010,02,21,12,30,11.20
2010,02,21,12,31,11.20
2010,02,21,12,32,11.20
2010,02,21,12,33,11.20
2010,02,21,12,34,11.10
2010,02,21,12,35,11.10
2010,02,21,12,36,11.20
2010,02,21,12,37,11.20
2010,02,21,12,38,11.20
2010,02,21,12,39,11.30
2010,02,21,12,40,11.20
2010,02,21,12,41,11.20
2010,02,21,12,42,11.20
2010,02,21,12,43,11.20
2010,02,21,12,44,11.20
2010,02,21,12,45,11.20
2010,02,21,12,46,11.10
2010,02,21,12,47,11.00
2010,02,21,12,48,10.90
2010,02,21,12,49,10.80
2010,02,21,12,50,10.80
2010,02,21,12,51,10.80
2010,02,21,12,52,10.70
2010,02,21,12,53,10.70
2010,02,21,12,54,10.70
2010,02,21,12,55,10.70
2010,02,21,12,56,10.80
2010,02,21,12,57,10.90
2010,02,21,12,58,10.90
2010,02,21,12,59,11.00
2010,02,21,13,00,11.00
2010,02,21,13,01,11.10
2010,02,21,13,02,11.10
2010,02,21,13,03,11.10
2010,02,21,13,04,11.20
2010,02,21,13,05,11.20
2010,02,21,13,06,11.30
2010,02,21,13,07,11.30
2010,02,21,13,08,11.30
2010,02,21,13,09,11.30
2010,02,21,13,10,11.30
2010,02,21,13,11,11.30
2010,02,21,13,12,11.50
2010,02,21,13,13,11.50
2010,02,21,13,14,11.50
2010,02,21,13,15,11.60
2010,02,21,13,16,11.60
2010,02,21,13,17,11.60
2010,02,21,13,18,11.60
2010,02,21,13,19,11.60
2010,02,21,13,20,11.60
2010,02,21,13,21,11.60
2010,02,21,13,22,11.60
2010,02,21,13,23,11.50
2010,02,21,13,24,11.50
2010,02,21,13,25,11.50
2010,02,21,13,26,11.40
2010,02,21,13,27,11.30
2010,02,21,13,28,11.20
2010,02,21,13,29,11.20
2010,02,21,13,30,11.20
2010,02,21,13,31,11.10
2010,02,21,13,32,11.10
2010,02,21,13,33,11.10
2010,02,21,13,34,11.20
2010,02,21,13,35,11.20
2010,02,21,13,36,11.30
2010,02,21,13,37,11.40
2010,02,21,13,38,11.40
2010,02,21,13,39,11.50
2010,02,21,13,40,11.50
2010,02,21,13,41,11.60
2010,02,21,13,42,11.60
2010,02,21,13,43,11.70
2010,02,21,13,44,11.80
2010,02,21,13,45,11.80
2010,02,21,13,46,12.00
2010,02,21,13,47,12.10
2010,02,21,13,48,12.20
2010,02,21,13,49,12.20
2010,02,21,13,50,12.10
2010,02,21,13,51,12.10
2010,02,21,13,52,12.20
2010,02,21,13,53,12.20
2010,02,21,13,54,12.20
2010,02,21,13,55,12.20
2010,02,21,13,56,12.20
2010,02,21,13,57,12.10
2010,02,21,13,58,12.20
2010,02,21,13,59,12.20
2010,02,21,14,00,12.30
2010,02,21,14,01,12.40
2010,02,21,14,02,12.40
2010,02,21,14,03,12.40
2010,02,21,14,04,12.40
2010,02,21,14,05,12.50
2010,02,21,14,06,12.50
2010,02,21,14,07,12.40
2010,02,21,14,08,12.40
2010,02,21,14,09,12.40
2010,02,21,14,10,12.40
2010,02,21,14,11,12.40
2010,02,21,14,12,12.30
2010,02,21,14,13,12.20
2010,02,21,14,14,12.10
2010,02,21,14,15,12.10
2010,02,21,14,16,12.10
2010,02,21,14,17,12.20
2010,02,21,14,18,12.20
2010,02,21,14,19,12.20
2010,02,21,14,20,12.20
2010,02,21,14,21,12.30
2010,02,21,14,22,12.40
2010,02,21,14,23,12.50
2010,02,21,14,24,12.60
2010,02,21,14,25,12.60
2010,02,21,14,26,12.60
2010,02,21,14,27,12.70
2010,02,21,14,28,12.70
2010,02,21,14,29,12.80
2010,02,21,14,30,12.90
2010,02,21,14,31,12.90
2010,02,21,14,32,12.90
2010,02,21,14,33,12.90
2010,02,21,14,34,12.90
2010,02,21,14,35,13.00
2010,02,21,14,36,13.10
2010,02,21,14,37,13.10
2010,02,21,14,38,13.10
2010,02,21,14,39,13.10
2010,02,21,14,40,13.20
2010,02,21,14,41,13.20
2010,02,21,14,42,13.10
2010,02,21,14,43,13.10
2010,02,21,14,44,13.10
2010,02,21,14,45,13.10
2010,02,21,14,46,13.10
2010,02,21,14,47,13.10
2010,02,21,14,48,13.10
2010,02,21,14,49,13.20
2010,02,21,14,50,13.20
2010,02,21,14,51,13.20
2010,02,21,14,52,13.20
2010,02,21,14,53,13.10
2010,02,21,14,54,13.10
2010,02,21,14,55,13.10
2010,02,21,14,56,13.20
2010,02,21,14,57,13.20
2010,02,21,14,58,13.30
2010,02,21,14,59,13.30
2010,02,21,15,00,13.40
2010,02,21,15,01,13.50
2010,02,21,15,02,13.60
2010,02,21,15,03,13.60
2010,02,21,15,04,13.50
2010,02,21,15,05,13.40
2010,02,21,15,06,13.40
2010,02,21,15,07,13.30
2010,02,21,15,08,13.20
2010,02,21,15,09,13.20
2010,02,21,15,10,13.10
2010,02,21,15,11,13.10
2010,02,21,15,12,12.90
2010,02,21,15,13,12.80
2010,02,21,15,14,12.90
2010,02,21,15,15,12.90
2010,02,21,15,16,12.90
2010,02,21,15,17,12.90
2010,02,21,15,18,12.80
2010,02,21,15,19,12.80
2010,02,21,15,20,12.80
2010,02,21,15,21,12.80
2010,02,21,15,22,12.80
2010,02,21,15,23,12.80
2010,02,21,15,24,12.80
2010,02,21,15,25,12.70
2010,02,21,15,26,12.60
2010,02,21,15,27,12.50
2010,02,21,15,28,12.40
2010,02,21,15,29,12.30
2010,02,21,15,30,12.20
2010,02,21,15,31,12.10
2010,02,21,15,32,11.90
2010,02,21,15,33,11.80
2010,02,21,15,34,11.70
2010,02,21,15,35,11.60
2010,02,21,15,36,11.50
2010,02,21,15,37,11.40
2010,02,21,15,38,11.30
2010,02,21,15,39,11.30
2010,02,21,15,40,11.30
2010,02,21,15,41,11.30
2010,02,21,15,42,11.30
2010,02,21,15,43,11.30
2010,02,21,15,44,11.30
2010,02,21,15,45,11.40
2010,02,21,15,46,11.50
2010,02,21,15,47,11.60
2010,02,21,15,48,11.60
2010,02,21,15,49,11.60
2010,02,21,15,50,11.60
2010,02,21,15,51,11.70
2010,02,21,15,52,11.70
2010,02,21,15,53,11.60
2010,02,21,15,54,11.60
2010,02,21,15,55,11.60
2010,02,21,15,56,11.60
2010,02,21,15,57,11.50
2010,02,21,15,58,11.40
2010,02,21,15,59,11.30
2010,02,21,16,00,11.20
2010,02,21,16,01,11.20
2010,02,21,16,02,11.20
2010,02,21,16,03,11.20
2010,02,21,16,04,11.20
2010,02,21,16,05,11.20
2010,02,21,16,06,11.20
2010,02,21,16,07,11.10
2010,02,21,16,08,11.00
2010,02,21,16,09,11.00
2010,02,21,16,10,11.10
2010,02,21,16,11,11.10
2010,02,21,16,12,11.20
2010,02,21,16,13,11.20
2010,02,21,16,14,11.20
2010,02,21,16,15,11.20
2010,02,21,16,16,11.30
2010,02,21,16,17,11.30
2010,02,21,16,18,11.30
2010,02,21,16,19,11.30
2010,02,21,16,20,11.30
2010,02,21,16,21,11.30
2010,02,21,16,22,11.30
2010,02,21,16,23,11.30
2010,02,21,16,24,11.30
2010,02,21,16,25,11.20
2010,02,21,16,26,11.20
2010,02,21,16,27,11.20
2010,02,21,16,28,11.20
2010,02,21,16,29,11.20
2010,02,21,16,30,11.20
2010,02,21,16,31,11.20
2010,02,21,16,32,11.20
2010,02,21,16,33,11.10
2010,02,21,16,34,11.10
2010,02,21,16,35,11.10
2010,02,21,16,36,11.10
2010,02,21,16,37,11.10
2010,02,21,16,38,11.10
2010,02,21,16,39,11.10
2010,02,21,16,40,11.10
2010,02,21,16,41,11.10
2010,02,21,16,42,11.10
2010,02,21,16,43,11.10
2010,02,21,16,44,11.00
2010,02,21,16,45,10.90
2010,02,21,16,46,10.90
2010,02,21,16,47,10.80
2010,02,21,16,48,10.80
2010,02,21,16,49,10.80
2010,02,21,16,50,10.80
2010,02,21,16,51,10.70
2010,02,21,16,52,10.70
2010,02,21,16,53,10.70
2010,02,21,16,54,10.70
2010,02,21,16,55,10.70
2010,02,21,16,56,10.60
2010,02,21,16,57,10.60
2010,02,21,16,58,10.50
2010,02,21,16,59,10.40
2010,02,21,17,00,10.30
2010,02,21,17,01,10.20
2010,02,21,17,02,10.10
2010,02,21,17,03,9.90
2010,02,21,17,04,9.80
2010,02,21,17,05,9.70
2010,02,21,17,06,9.60
2010,02,21,17,07,9.60
2010,02,21,17,08,9.60
2010,02,21,17,09,9.60
2010,02,21,17,10,9.50
2010,02,21,17,11,9.50
2010,02,21,17,12,9.40
2010,02,21,17,13,9.40
2010,02,21,17,14,9.40
2010,02,21,17,15,9.50
2010,02,21,17,16,9.50
2010,02,21,17,17,9.50
2010,02,21,17,18,9.50
2010,02,21,17,19,9.50
2010,02,21,17,20,9.40
2010,02,21,17,21,9.40
2010,02,21,17,22,9.40
2010,02,21,17,23,9.40
2010,02,21,17,24,9.40
2010,02,21,17,25,9.30
2010,02,21,17,26,9.30
2010,02,21,17,27,9.30
2010,02,21,17,28,9.30
2010,02,21,17,29,9.30
2010,02,21,17,30,9.30
2010,02,21,17,31,9.20
2010,02,21,17,32,9.20
2010,02,21,17,33,9.10
2010,02,21,17,34,9.10
2010,02,21,17,35,9.10
2010,02,21,17,36,9.00
2010,02,21,17,37,8.90
2010,02,21,17,38,8.90
2010,02,21,17,39,8.90
2010,02,21,17,40,8.80
2010,02,21,17,41,8.80